Visibility
15.0 15.0 15.0 15.0 6.6 7.6 3.7 0.5 0.6 5.0 11.2 4.8 1.6 0.5 1.3 0.2 1.5 2.3 2.0 4.0 5.5 5.8 5.7 6.8 6.0 5.7 8.6
15.0 15.0 15.0 15.0 14.0 0.2 0.3 5.4 4.5 0.5 13.0 8.8 2.9 3.9 0.3 0.4 0.1 0.5 5.2 2.5 3.5 3.9 6.9 6.9 10.0 7.8 4.0
13.1 15.0 15.0 15.0 11.0 12.2 0.9 4.1 6.8 14.8 2.1 2.7 10.7 4.0 0.6 0.2 0.2 0.1 0.1 0.4 2.5 3.1 6.2 6.3 6.1 9.5 4.5
15.0 15.0 15.0 15.0 12.3 0.2 1.6 0.2 0.1 4.3 2.1 0.2 0.5 1.4 6.4 15.0 12.3 0.1 0.1 1.2 2.0 5.2 8.2 6.6 8.7 10.7 4.6
15.0 15.0 15.0 15.0 13.7 3.4 0.1 0.2 0.1 0.1 0.1 0.1 0.2 0.2 0.4 4.4 8.5 0.1 0.1 0.2 0.8 9.1 5.8 3.5 5.9 4.3 7.7
13.5 8.0 15.0 15.0 11.0 0.1 0.3 0.2 0.1 10.1 0.1 0.0 0.2 0.1 0.2 13.1 3.2 0.4 0.1 0.1 2.8 5.0 2.1 4.4 4.1 5.8 8.2
15.0 15.0 15.0 15.0 15.0 11.3 0.2 0.7 0.1 0.1 2.2 0.0 0.1 0.0 2.5 15.0 0.4 0.1 0.1 0.2 0.1 14.2 5.2 10.1 9.4 6.8 5.9
9.6 15.0 15.0 15.0 15.0 14.5 0.1 0.2 0.3 0.8 5.5 0.0 0.1 0.0 0.1 15.0 14.3 8.6 3.3 0.8 4.3 5.5 4.0 8.5 5.0 3.3 4.8
15.0 15.0 15.0 15.0 15.0 15.0 0.3 2.4 0.1 0.1 5.5 0.1 0.1 0.0 0.1 0.1 7.3 8.2 9.3 12.7 13.6 9.9 7.8 3.0 3.1 4.1 6.4
15.0 15.0 15.0 15.0 15.0 15.0 9.9 0.1 0.2 0.1 3.7 0.1 0.1 15.0 0.0 15.0 0.3 14.9 9.3 6.0 5.2 4.7 3.5 2.5 3.1 14.7 3.1
15.0 15.0 15.0 15.0 15.0 15.0 15.0 8.3 0.2 0.2 5.1 0.4 5.3 15.0 3.3 0.3 11.5 14.0 15.0 6.6 6.3 4.6 5.1 5.5 7.6 7.6 13.1
13.3 15.0 15.0 15.0 15.0 15.0 15.0 11.6 10.9 7.6 14.3 4.5 0.1 12.1 0.8 0.3 0.6 2.2 5.2 13.2 14.7 11.7 10.9 14.4 15.0 15.0 15.0
15.0 15.0 15.0 15.0 15.0 0.2 1.3 1.9 0.6 5.3 7.3 2.9 11.4 15.0 3.8 13.8 0.1 0.5 0.8 0.2 4.8 3.2 14.5 15.0 15.0 15.0 15.0
15.0 15.0 15.0 15.0 15.0 10.2 0.1 0.1 0.1 0.1 0.2 10.3 14.1 15.0 15.0 14.1 13.7 8.4 15.0 0.6 11.1 15.0 15.0 15.0 15.0 15.0 15.0
9.9 15.0 10.4 0.1 0.1 0.7 0.0 0.0 0.1 0.1 0.1 0.3 2.4 15.0 6.1 15.0 4.0 1.4 0.7 0.3 9.4 15.0 15.0 15.0 15.0 15.0 15.0
15.0 0.1 0.0 0.0 0.0 0.1 0.0 0.1 0.1 0.1 0.1 0.1 0.1 0.1 0.6 0.1 0.4 0.2 0.1 0.2 10.6 15.0 15.0 15.0 15.0 15.0 15.0
14.5 1.0 0.0 0.0 0.0 0.0 0.0 0.0 0.1 0.1 0.1 0.3 14.6 15.0 4.4 1.1 0.1 0.1 0.3 0.1 8.2 15.0 15.0 15.0 15.0 15.0 15.0